Location: Newark
(37.9717°N, 99.9089°W)
Time: 00:23:20
(UTC+00:00)

ISS - Pass Details

Date: 31 July 2019
Orbit: 410 x 420 km, 51.6° (Epoch: 21 August)

Event Time Altitude Azimuth Distance (km) Brightness Sun altitude
Rises 04:25:13 0° 314° (NW) 2,368 1.4 -24.7°
Reaches altitude 10° 04:27:24 10° 322° (NW) 1,500 0.1 -24.9°
Enters shadow 04:29:30 30° 348° (NNW) 784 -1.9 -25.2°
